Weather History for Rogers, AR

Change the Weather History Date:

Wednesday, April 3, 2013

  Actual Average Record
Temperature  
Mean Temperature 42 °F -  
Max Temperature 48 °F 61 °F 84 °F (2011)
Min Temperature 36 °F 42 °F 30 °F (2002)
Degree Days  
Heating Degree Days 23    
Moisture  
Dew Point 26 °F    
Average Humidity 53    
Maximum Humidity 89    
Minimum Humidity 35    
Precipitation  
Precipitation 0.05 in - - ()
Sea Level Pressure  
Sea Level Pressure 30.22 in    
Wind  
Wind Speed 12 mph (ENE)    
Max Wind Speed 20 mph    
Max Gust Speed 31 mph    
Visibility 10 miles    
Events Rain    
Averages and records for this station are not official NWS values.
T = Trace of Precipitation, MM = Missing Value Source: NWS Daily Summary

Daily Weather History Graph

Daily Weather History Graph

Search for Another Location

Airport:

Trip Planner

Search our weather history database for the weather conditions in past years. The results will help you decide how hot, cold, wet, or windy it might be!

Date:

Astronomy

Apr. 03, 2013 Rise Set
Actual Time 6:59 AM CDT 7:40 PM CDT
Civil Twilight 6:33 AM CDT 8:06 PM CDT
Nautical Twilight 6:02 AM CDT 8:37 PM CDT
Astronomical Twilight 5:31 AM CDT 9:08 PM CDT
Moon 2:29 AM CDT (4/3) 1:04 PM CDT (4/3)
Length of Visible Light 13h 33m
Length of Day
12h 41m
Last Quarter, 44% of the Moon is Illuminated
Apr 3
Last Quarter
Apr 10
New
Apr 18
First Quarter
Apr 25
Full
May 2
Last Quarter

Hourly Weather History & Observations

Time (CDT) Temp. Windchill Dew Point Humidity Pressure Visibility Wind Dir Wind Speed Gust Speed Precip Events Conditions
12:57 AM 36.0 °F 27.5 °F 30.0 °F 79% 30.22 in 10.0 mi ENE 12.7 mph - N/A   Overcast
1:57 AM 36.0 °F 28.0 °F 28.9 °F 76% 30.23 in 10.0 mi ENE 11.5 mph - N/A   Mostly Cloudy
2:57 AM 36.0 °F 26.7 °F 28.0 °F 73% 30.21 in 10.0 mi East 15.0 mph - N/A   Overcast
3:57 AM 36.0 °F 27.1 °F 27.0 °F 70% 30.19 in 10.0 mi ENE 13.8 mph - N/A   Scattered Clouds
4:57 AM 37.0 °F 28.1 °F 28.0 °F 70% 30.20 in 10.0 mi ENE 15.0 mph - N/A   Overcast
5:57 AM 37.0 °F 29.8 °F 27.0 °F 67% 30.24 in 10.0 mi East 10.4 mph - N/A   Overcast
6:57 AM 37.0 °F 27.4 °F 25.0 °F 62% 30.25 in 10.0 mi East 17.3 mph 21.9 mph N/A   Overcast
7:57 AM 37.9 °F 30.0 °F 24.1 °F 57% 30.25 in 10.0 mi East 12.7 mph - N/A   Overcast
8:57 AM 39.0 °F 30.6 °F 23.0 °F 53% 30.27 in 10.0 mi ENE 15.0 mph - N/A   Overcast
9:57 AM 39.9 °F 31.1 °F 23.0 °F 51% 30.27 in 10.0 mi East 17.3 mph 21.9 mph N/A   Overcast
10:57 AM 41.0 °F 31.9 °F 21.0 °F 45% 30.26 in 10.0 mi East 19.6 mph 31.1 mph 0.00 in Rain Light Rain
11:57 AM 44.1 °F 38.1 °F 25.0 °F 47% 30.25 in 10.0 mi East 11.5 mph 21.9 mph N/A   Overcast
12:57 PM 46.9 °F - 23.0 °F 39% 30.23 in 10.0 mi East 11.5 mph 19.6 mph N/A   Overcast
1:57 PM 48.9 °F - 21.9 °F 35% 30.23 in 10.0 mi ENE 12.7 mph 21.9 mph N/A   Overcast
2:57 PM 48.9 °F - 23.0 °F 36% 30.21 in 10.0 mi ENE 15.0 mph - N/A   Overcast
3:57 PM 48.0 °F - 24.1 °F 39% 30.20 in 10.0 mi East 8.1 mph - N/A   Overcast
4:57 PM 48.0 °F - 24.1 °F 39% 30.19 in 10.0 mi East 10.4 mph - N/A   Overcast
5:57 PM 48.9 °F - 23.0 °F 36% 30.19 in 10.0 mi East 6.9 mph - N/A   Mostly Cloudy
6:57 PM 48.9 °F - 23.0 °F 36% 30.20 in 10.0 mi ENE 5.8 mph - N/A   Overcast
7:57 PM 46.9 °F - 27.0 °F 46% 30.19 in 10.0 mi NNE 6.9 mph - N/A   Overcast
8:57 PM 46.9 °F - 25.0 °F 42% 30.19 in 10.0 mi NNE 4.6 mph - N/A   Overcast
9:57 PM 46.9 °F - 26.1 °F 44% 30.19 in 10.0 mi ENE 8.1 mph - N/A   Overcast
10:57 PM 46.0 °F - 28.9 °F 51% 30.18 in 10.0 mi Calm Calm - 0.00 in Rain Light Rain
11:57 PM 41.0 °F - 37.9 °F 89% 30.18 in 10.0 mi Calm Calm - 0.05 in Rain Light Rain